Theta_e
312 312 312 311 311 310 311 312 312 314 314 315 317 316 319 320 317 317 317 314 313 315 316 315 315 315 315 315 312 312 313 313 312 313 314 314 314 315 316 317 316 316 315 314 314 314 314 313 314 314 314 314 314 314 315 315 316 315 315 315 315 315 315 315 315 316 316 315 315 314 314 314 314 314 314 314 314 314 314 314 314 315 315 315 315 315
311 312 312 311 311 311 311 313 312 312 311 312 316 316 316 320 318 315 315 314 312 314 316 315 315 314 315 315 312 311 312 311 312 312 312 314 313 314 315 315 316 315 314 314 315 315 314 314 314 313 314 314 314 314 314 314 314 314 314 314 314 314 314 314 314 314 314 314 314 314 314 314 314 314 314 315 315 315 315 315 314 314 315 315 315 316
311 311 311 311 311 311 312 313 312 312 312 312 316 316 316 318 318 314 314 315 313 314 317 317 315 315 315 315 312 310 311 312 313 313 313 314 313 314 314 315 315 315 315 315 315 315 315 314 314 314 313 314 314 314 314 314 314 314 314 313 313 314 313 314 314 314 314 314 314 314 314 315 315 315 315 315 315 316 316 315 315 315 314 315 315 315
312 311 311 311 311 311 312 312 312 312 312 314 317 317 317 316 317 316 314 314 313 313 316 316 316 316 315 315 314 312 312 314 314 314 314 314 314 314 314 314 315 315 315 315 315 315 315 314 315 314 314 314 314 314 314 314 314 314 314 314 314 314 314 314 314 314 314 314 315 315 316 317 317 317 317 316 315 315 315 315 316 316 315 316 315 317
312 311 310 311 311 312 312 311 313 313 312 316 319 320 321 318 317 317 315 314 313 313 314 315 316 318 316 315 316 315 313 313 314 314 314 314 314 314 314 314 314 315 314 315 315 315 315 315 314 314 314 314 314 314 314 314 314 314 314 314 314 314 314 314 314 314 314 314 315 316 317 319 319 318 317 316 315 314 315 315 316 317 317 317 317 319
312 311 311 311 311 313 313 312 314 316 313 316 320 322 323 319 318 318 317 316 313 314 317 314 314 323 326 318 314 314 313 313 313 312 313 314 314 314 314 314 313 314 314 314 315 315 315 315 315 315 314 314 314 314 314 314 314 314 314 314 314 314 314 314 314 314 314 314 315 316 317 317 317 317 316 315 315 315 316 317 317 318 318 317 318 320
313 310 311 313 312 315 316 313 317 319 314 313 317 321 321 320 321 320 317 319 318 316 316 313 314 323 325 319 316 315 313 314 313 311 312 313 314 314 314 315 315 314 314 315 315 315 315 315 315 315 315 314 314 314 314 314 313 314 314 314 314 314 314 314 314 313 314 314 314 315 315 316 316 316 316 316 317 317 317 317 317 318 318 318 318 319
312 311 312 314 314 316 316 313 316 319 315 317 319 321 324 321 323 321 317 321 324 317 315 315 316 317 316 318 321 318 313 314 314 313 313 312 313 315 315 315 315 315 315 315 315 315 316 316 316 316 315 315 315 315 314 314 314 313 314 314 314 314 314 314 314 313 314 314 314 316 316 317 316 316 316 317 318 318 317 317 316 316 317 317 318 317
312 313 314 315 315 315 315 315 319 318 315 319 322 322 323 321 323 322 318 321 321 317 319 320 315 314 320 326 323 317 316 316 315 316 315 312 313 315 315 315 315 315 316 316 316 316 317 317 317 316 316 315 315 314 314 314 314 313 313 313 313 314 314 314 314 314 314 315 317 318 318 318 318 316 317 318 318 318 317 316 315 315 316 315 315 315
313 313 313 315 316 316 318 321 324 322 315 316 321 323 325 324 323 320 320 323 317 315 323 324 316 313 322 329 322 314 317 318 318 317 313 312 314 316 315 316 315 316 317 317 317 317 317 317 316 316 315 315 314 314 314 314 313 313 313 313 313 313 314 314 314 314 315 317 319 320 320 319 318 316 316 316 315 315 315 314 315 315 315 315 315 315
311 309 312 315 314 315 318 317 316 319 316 315 322 325 324 326 326 323 327 326 315 319 329 327 318 313 316 325 324 317 318 320 317 317 315 312 313 314 315 316 315 316 316 316 316 316 316 316 315 315 314 314 314 313 313 313 313 313 313 313 313 313 314 314 314 314 315 317 319 318 317 316 315 314 314 314 313 313 313 314 314 315 314 315 314 315
311 310 312 312 310 311 316 315 313 316 316 318 327 325 318 322 326 327 328 320 315 324 329 321 316 314 315 323 325 319 319 319 317 317 319 316 313 313 314 315 315 315 315 314 315 314 314 314 313 314 313 313 313 313 313 313 312 313 313 313 313 313 313 313 313 314 314 315 315 314 313 312 312 312 313 313 313 313 314 314 315 315 315 315 314 314
314 314 313 311 310 312 318 318 314 316 318 320 323 319 316 318 318 320 323 319 319 322 318 314 315 316 317 319 319 317 317 317 315 315 317 315 313 314 314 315 315 314 314 314 313 313 313 313 313 313 312 312 312 312 312 312 312 312 312 312 312 312 312 312 312 312 312 312 311 311 311 311 311 312 313 313 314 314 314 315 315 315 314 314 314 314
316 316 314 313 312 311 316 316 314 317 317 318 317 315 319 321 314 315 319 318 319 319 315 312 315 317 317 317 317 317 315 313 313 313 315 314 314 315 314 314 314 313 313 313 313 313 312 312 312 312 312 312 312 312 312 311 311 311 311 311 311 311 311 311 311 311 311 310 310 310 311 311 312 313 314 314 314 314 315 315 314 314 315 314 315 314
317 317 314 315 312 312 316 316 317 320 317 318 321 318 320 324 320 318 320 320 320 320 315 311 315 321 320 317 318 314 310 311 313 315 315 315 315 315 314 313 313 313 313 314 313 313 312 312 312 311 312 311 312 311 311 311 311 311 311 311 311 311 311 311 311 311 311 311 311 312 312 313 314 314 315 315 315 315 314 315 315 314 315 315 315 315
314 314 315 314 311 312 315 315 317 319 317 319 321 320 319 323 327 324 321 325 325 319 315 313 318 325 319 315 316 311 309 311 311 313 314 314 314 313 313 312 312 313 313 314 313 312 311 311 311 311 311 311 311 311 311 311 311 311 311 311 311 311 311 311 311 311 312 312 313 314 314 314 315 315 315 315 315 315 315 315 315 315 315 315 315 315
313 313 315 314 311 311 312 313 314 314 316 318 317 321 322 320 326 323 314 317 318 317 319 315 316 321 316 315 317 312 313 312 310 311 312 313 313 311 311 311 311 313 313 314 313 312 312 311 311 311 310 311 311 311 312 312 312 312 312 312 312 312 312 312 313 313 314 314 314 315 315 315 315 315 315 315 314 315 315 315 315 315 315 315 314 314
316 315 313 314 314 311 308 310 311 309 314 319 318 320 320 316 320 320 314 314 314 317 322 315 313 319 317 318 320 313 313 314 312 311 309 310 311 310 311 311 311 313 313 313 314 313 313 313 312 313 312 313 313 312 313 312 312 312 312 313 313 313 314 314 314 315 314 315 315 315 315 314 315 315 314 315 315 315 315 314 315 314 314 314 314 314
319 317 313 312 314 312 310 312 313 310 310 315 316 316 317 317 318 318 316 317 314 314 320 316 314 318 317 321 322 315 315 315 312 312 310 310 311 310 312 312 311 313 313 313 314 314 314 314 313 314 314 314 314 313 313 313 313 314 313 314 315 314 315 314 315 315 314 314 314 314 314 314 314 315 314 315 314 314 314 314 314 314 314 314 313 313
317 318 316 312 313 313 312 313 316 314 311 312 313 312 315 318 320 318 316 319 320 317 320 318 315 320 322 323 324 319 319 316 312 313 312 309 310 311 312 312 311 313 313 313 314 314 314 315 314 315 314 314 314 314 315 315 314 315 315 315 315 314 315 314 314 314 314 314 314 314 314 314 315 314 314 314 314 314 314 314 314 314 313 313 313 313
313 317 319 313 311 313 314 314 315 316 313 313 314 313 313 315 316 317 316 321 324 320 321 318 317 329 331 321 319 318 318 317 312 313 311 307 310 312 311 312 312 313 313 313 314 314 314 315 315 315 315 315 315 315 315 315 315 315 314 314 314 314 314 314 314 314 314 314 314 314 314 314 314 314 314 314 314 314 314 314 313 313 313 313 312 312
314 316 318 314 313 314 316 315 314 315 316 314 314 314 315 314 316 317 315 319 321 318 324 321 318 333 335 318 315 316 315 314 309 309 310 308 310 312 311 312 313 313 313 313 314 314 314 315 315 314 315 315 315 315 314 314 314 314 314 314 314 314 314 314 314 314 314 314 314 314 314 314 314 314 314 314 314 313 313 313 313 313 312 312 311 311
317 318 317 316 315 315 316 313 309 312 318 316 315 317 317 315 316 317 318 321 318 314 321 320 315 331 335 317 314 314 310 309 308 308 308 308 310 312 312 312 312 313 313 313 314 315 314 315 315 314 314 314 314 314 314 314 314 314 314 314 314 314 314 314 314 314 314 314 314 314 314 314 314 314 314 313 313 313 313 313 312 311 311 310 310 310
315 318 318 315 314 314 316 314 309 311 316 315 316 317 317 315 315 319 323 326 321 315 317 315 312 326 333 315 308 309 307 307 308 309 309 309 311 312 312 313 312 312 313 313 314 315 314 314 314 314 314 314 314 314 314 314 314 314 314 314 314 314 314 314 314 314 314 314 314 314 314 314 313 313 313 313 313 312 312 312 311 311 310 310 310 310
313 317 318 316 316 316 317 316 313 313 314 316 317 316 314 314 313 316 319 317 317 320 319 316 315 324 332 318 308 309 311 308 307 309 311 312 312 312 313 313 311 311 312 313 313 314 314 314 314 314 314 314 314 314 314 314 314 314 314 314 314 314 314 314 314 314 314 314 314 314 313 313 313 313 313 312 312 312 311 311 310 310 310 310 310 310
317 319 318 317 317 315 315 315 315 315 314 315 317 314 313 316 314 315 318 314 316 321 318 316 319 321 324 319 311 313 317 313 308 308 310 312 312 313 314 312 311 310 311 312 313 314 314 314 314 314 314 314 314 314 314 314 314 313 313 313 314 314 314 314 314 314 314 314 313 314 313 313 313 312 312 312 311 311 310 310 310 310 309 310 309 309
320 320 316 316 315 314 315 316 317 317 315 314 316 316 315 317 316 316 318 316 317 320 318 319 321 317 316 317 314 315 318 317 312 308 308 310 312 313 313 313 312 311 311 313 313 313 314 314 314 314 314 314 314 314 314 313 313 313 313 313 313 314 314 314 314 314 313 313 313 313 313 313 312 312 312 311 311 310 310 310 310 309 309 309 308 307
321 317 314 316 315 314 316 318 317 316 315 314 316 316 315 316 317 317 316 314 315 317 317 319 320 316 314 315 316 316 317 317 312 307 307 310 310 311 312 313 313 312 312 313 312 313 314 313 314 314 314 315 314 314 314 313 313 313 313 313 313 313 313 313 314 313 313 313 313 313 313 312 312 311 311 310 310 310 310 310 309 309 308 307 306 304
318 316 315 316 314 314 317 318 317 315 315 315 314 315 315 315 316 316 315 314 315 315 313 315 318 316 313 315 317 316 314 313 311 308 308 309 309 311 311 311 313 313 313 313 312 313 313 313 314 314 314 314 314 314 314 313 313 313 313 313 313 313 313 313 313 313 313 313 313 312 312 312 311 311 310 310 310 309 309 309 308 307 305 304 303 302
314 317 317 315 313 314 317 317 317 316 315 315 315 315 314 314 315 315 315 314 315 315 314 314 315 315 314 317 318 314 310 309 309 309 309 309 309 311 311 311 312 312 312 312 312 312 313 313 314 314 315 314 314 314 313 313 313 312 312 313 313 313 313 313 313 313 312 312 312 312 312 311 311 310 310 309 309 309 309 307 306 304 302 301 301 301
312 317 318 314 312 314 316 317 317 317 316 315 316 315 314 314 314 314 314 314 314 314 314 314 315 315 314 314 313 312 311 310 309 309 309 309 310 311 312 311 311 311 311 311 312 313 313 313 314 314 314 314 314 314 313 313 313 312 312 313 313 313 313 313 313 312 312 312 311 311 311 310 310 310 309 309 308 308 307 304 302 301 300 300 300 300
313 316 316 315 314 315 316 316 316 316 315 315 316 317 315 314 314 313 313 314 314 314 314 315 315 314 313 312 311 311 310 308 309 310 310 309 310 311 312 312 311 311 311 311 312 313 313 313 314 314 314 314 314 314 313 313 313 312 312 312 312 313 313 312 312 312 312 311 311 311 310 310 310 309 309 308 307 305 303 301 300 300 300 300 300 300
317 317 317 316 316 314 313 314 315 314 314 314 315 316 315 313 313 313 314 314 314 314 314 314 313 312 313 313 313 313 311 309 309 310 310 310 310 311 312 312 311 312 312 312 312 312 313 313 314 314 314 314 314 314 314 313 313 312 312 312 312 313 312 312 312 311 311 310 310 310 310 309 309 308 308 306 304 302 300 300 300 300 300 300 300 300
316 318 318 316 317 316 312 314 316 314 313 314 315 317 316 314 314 314 314 314 313 312 313 313 312 312 314 314 313 314 313 312 311 311 312 312 311 311 311 311 311 311 311 312 312 312 313 313 313 314 314 314 314 314 313 313 313 312 312 312 312 312 312 312 312 311 310 309 309 309 309 308 308 307 306 303 301 300 299 299 300 300 300 300 300 298
315 316 317 316 318 317 314 314 315 314 313 314 318 320 316 313 314 314 314 313 312 312 312 312 312 312 311 311 311 311 312 313 313 314 313 313 312 312 311 311 311 311 311 312 312 312 313 313 313 314 314 314 314 313 313 313 312 312 311 311 312 312 312 311 311 310 309 308 308 308 308 308 307 305 303 300 299 299 299 300 300 300 300 299 298 297
314 315 317 316 317 316 314 314 315 315 314 315 318 317 314 313 315 315 314 314 312 312 312 312 312 311 309 309 310 311 312 312 313 313 313 313 313 312 311 311 311 311 311 312 312 312 313 313 313 313 314 314 313 313 313 313 312 312 311 311 311 311 311 311 310 309 308 308 308 308 307 307 305 302 300 299 299 299 299 300 300 299 298 297 297 296
311 315 316 314 314 317 315 314 315 316 315 315 315 314 312 314 316 315 315 315 313 312 312 311 311 311 309 309 310 311 311 311 311 312 313 313 312 311 311 311 311 312 312 312 313 313 313 313 313 313 313 313 313 313 312 312 311 311 311 311 311 311 310 310 309 308 308 308 308 307 306 305 302 300 299 299 299 299 299 299 298 297 297 297 296 296
310 313 316 313 314 317 317 315 315 316 315 314 314 314 312 311 313 313 314 314 313 311 311 311 312 312 310 309 310 310 311 313 313 313 312 312 311 311 311 311 311 312 312 311 312 312 312 313 313 313 313 313 313 313 312 311 311 310 311 311 310 310 310 309 308 308 308 308 307 306 304 301 299 298 299 299 299 299 299 298 297 297 297 297 297 297
312 313 314 313 314 315 316 316 315 315 315 314 315 315 312 310 310 311 313 314 313 310 309 310 312 311 309 309 309 310 313 315 315 313 312 313 312 311 311 312 311 311 311 311 311 311 312 312 312 313 313 312 312 312 311 310 310 310 310 310 310 309 309 308 308 307 307 307 306 303 301 299 298 298 299 299 299 298 297 297 297 297 297 298 298 298
312 314 313 312 314 314 313 314 314 313 314 317 317 314 311 310 311 312 314 314 311 309 310 310 310 310 310 309 309 311 314 315 313 312 311 313 312 311 311 311 311 311 311 311 311 311 311 312 312 312 312 311 311 310 310 309 309 310 310 309 309 309 308 308 307 307 306 305 303 300 298 298 298 298 298 298 298 297 297 297 298 298 298 298 298 297
312 313 313 311 312 313 313 313 314 312 314 320 317 310 308 311 313 313 315 313 310 310 311 311 310 310 311 309 309 311 312 312 311 311 311 312 312 311 311 310 310 310 310 310 310 310 310 310 311 311 310 310 310 309 309 309 309 309 309 309 309 308 307 307 307 306 304 302 299 298 298 298 298 298 298 298 297 297 297 298 298 298 298 297 296 295
312 312 313 311 311 312 312 313 312 311 313 316 313 307 307 312 315 314 313 312 311 312 312 312 312 311 311 310 310 311 311 310 311 311 311 311 311 311 311 311 310 310 309 309 309 309 309 309 309 309 309 309 308 308 308 308 308 308 308 308 308 307 307 306 305 304 301 299 297 297 297 297 298 298 298 297 297 298 298 298 298 298 297 296 295 294
311 311 312 311 311 312 312 312 312 313 312 311 310 309 310 314 317 315 312 311 312 312 312 312 312 311 311 310 310 310 310 310 310 311 311 311 311 311 311 311 310 310 310 309 309 308 308 308 308 308 308 307 307 307 307 307 307 308 308 307 307 306 305 305 303 301 299 297 297 297 297 298 298 297 297 297 297 298 298 297 297 296 295 295 294 294
311 312 313 312 311 311 312 311 312 313 312 310 312 313 311 312 314 313 311 311 312 312 312 312 311 311 311 310 310 310 309 310 310 310 311 311 311 311 311 310 310 310 310 310 309 309 308 308 307 307 307 307 307 307 306 307 307 307 307 306 306 305 304 303 300 298 297 297 297 297 298 298 297 297 297 297 297 297 297 296 296 295 295 294 294 293
311 310 312 312 311 311 312 312 311 311 309 309 311 312 311 311 312 312 312 313 313 312 312 312 312 312 311 311 311 311 310 310 310 310 310 311 311 311 311 310 310 310 310 310 310 309 308 308 307 307 307 307 306 306 306 306 306 306 306 305 304 304 302 300 298 297 297 297 297 298 297 296 296 297 297 297 297 296 296 296 295 295 294 294 293 293
311 308 308 312 313 311 309 309 309 308 308 309 311 311 311 311 311 311 312 312 312 313 312 312 312 312 312 311 311 311 311 310 310 310 310 310 310 310 310 310 310 310 310 309 309 309 308 307 307 307 307 307 307 306 306 306 305 304 304 304 303 302 300 298 297 296 297 297 297 297 296 296 296 297 297 297 296 296 295 295 295 294 293 293 293 292
311 307 309 314 314 312 311 311 311 310 309 310 311 311 311 310 310 311 312 312 312 312 312 311 312 312 311 312 311 311 311 310 310 310 310 309 310 310 309 310 309 309 309 309 309 308 308 308 307 307 307 307 306 306 305 305 304 303 302 302 301 299 298 297 296 296 297 297 296 296 296 296 297 297 297 296 296 295 295 294 294 293 293 292 292 291
310 307 311 316 314 311 312 311 308 308 309 309 310 311 310 310 311 311 311 311 311 311 311 311 311 311 311 311 311 311 311 310 310 310 310 309 309 309 309 309 309 309 309 308 308 308 307 307 307 307 307 306 306 306 305 304 304 303 301 300 299 298 297 296 296 296 296 296 296 296 296 296 297 296 296 296 295 295 294 294 293 292 292 291 291 290
309 308 313 316 314 312 312 308 306 308 310 309 310 311 310 310 311 311 311 311 310 311 311 311 310 311 311 310 310 310 311 310 310 310 310 309 309 309 309 309 309 309 308 308 307 307 307 307 307 307 307 306 306 306 305 304 303 303 301 299 297 297 296 296 296 296 296 296 296 296 296 297 296 296 296 295 295 294 293 292 292 291 291 290 290 290
309 311 313 314 313 313 313 310 309 312 313 310 309 310 310 310 310 310 309 310 309 309 310 310 310 310 310 310 310 310 310 310 309 309 309 309 309 309 309 308 308 308 308 307 307 307 307 306 306 306 306 306 305 305 305 304 303 301 300 298 297 296 296 296 296 296 296 296 296 296 296 296 296 295 295 294 294 293 292 291 291 290 290 290 289 289
309 311 312 312 312 312 311 309 308 310 311 309 308 309 309 309 309 309 309 309 309 309 309 309 309 310 310 309 309 309 309 309 309 308 308 308 308 308 308 308 308 308 307 307 307 307 307 306 306 306 305 305 305 304 303 303 302 300 299 298 296 296 295 296 296 296 296 296 296 296 296 296 295 295 294 293 292 292 291 291 290 290 289 289 288 288
Wind_Speed
13 7 8 9 9 8 6 6 6 8 7 4 4 5 6 5 4 4 3 4 4 5 6 7 8 9 8 7 10 16 17 17 19 19 22 23 22 24 26 25 25 25 25 22 22 24 24 24 23 22 22 23 23 23 24 25 25 25 24 24 23 21 20 19 19 19 19 19 19 18 18 17 16 15 16 16 17 17 17 17 18 19 19 20 19 18
13 7 10 9 8 8 7 6 6 10 9 5 4 5 6 5 4 3 2 3 1 3 5 5 6 9 9 8 11 14 12 15 21 21 23 27 26 25 26 26 26 25 22 20 21 23 24 24 24 24 24 24 25 26 25 26 25 24 24 24 22 21 21 20 20 19 19 19 19 18 17 16 15 15 16 16 15 15 16 17 17 17 18 19 18 18
10 7 10 11 10 8 7 6 7 10 9 5 3 4 6 4 3 2 2 1 1 1 4 2 4 9 10 8 9 12 14 18 26 26 26 28 28 28 27 27 27 26 23 22 22 23 23 24 24 25 26 25 25 25 26 26 25 25 25 23 22 22 21 21 20 20 20 19 19 18 18 16 16 16 16 16 16 16 17 17 17 17 17 17 17 16
6 5 9 12 11 9 8 7 6 9 7 5 2 4 5 4 4 2 2 2 1 1 1 1 2 6 8 6 7 14 21 21 25 28 28 28 28 29 29 28 29 28 26 25 24 23 24 24 24 26 26 26 26 26 26 27 27 26 26 24 23 23 22 21 21 21 20 20 19 19 18 17 17 18 18 18 18 18 18 18 18 17 17 17 16 15
4 5 13 13 7 7 9 8 7 6 5 5 4 4 4 5 5 3 3 3 2 2 1 4 3 5 6 6 7 13 19 18 21 26 28 30 30 28 28 29 30 30 28 27 26 26 26 26 26 25 25 25 26 27 27 27 27 27 26 25 24 24 23 22 21 21 21 21 21 21 20 20 21 21 21 20 19 18 18 18 17 17 17 17 16 16
5 8 15 13 7 6 7 8 7 5 4 5 5 5 6 7 5 5 6 5 3 3 3 3 0 6 5 7 9 10 9 11 17 21 26 33 32 30 30 31 31 31 29 28 27 27 27 27 27 25 24 24 25 26 27 27 27 26 26 25 25 25 24 23 22 22 22 23 23 23 24 24 24 23 21 19 17 16 17 17 17 17 17 17 17 17
4 7 11 9 9 8 5 7 6 5 5 4 5 4 6 7 7 9 8 5 3 3 3 3 5 5 6 5 9 8 6 10 12 14 22 31 31 32 34 32 31 31 30 29 27 27 28 28 27 26 25 24 23 23 24 26 28 27 26 26 26 26 25 24 23 23 24 25 25 25 25 25 24 21 19 17 16 17 18 18 18 18 18 18 19 19
3 6 7 6 8 7 6 7 6 5 6 4 3 4 8 9 8 9 9 4 3 3 2 2 4 3 5 6 8 6 6 9 9 9 16 23 28 32 35 32 30 30 29 29 29 28 29 28 28 27 25 24 23 22 24 26 27 28 27 27 27 27 26 25 24 25 26 26 26 26 26 25 23 20 18 18 18 19 19 19 19 19 19 19 19 19
3 7 8 7 7 5 6 6 6 6 5 5 3 5 7 8 8 8 7 4 1 3 2 4 3 2 6 7 6 1 4 7 8 10 13 19 27 30 32 32 29 28 26 27 28 29 29 29 28 26 24 23 22 24 25 25 25 26 27 27 27 27 27 26 25 26 27 27 27 26 26 25 22 20 19 20 20 20 21 20 19 19 18 18 18 17
1 7 8 9 7 5 5 4 4 5 4 4 3 5 4 4 5 5 5 4 3 2 5 6 4 3 5 6 4 1 2 6 8 9 11 18 27 29 30 31 29 28 26 26 27 27 27 27 27 26 25 24 24 24 25 26 26 26 27 27 27 27 26 26 26 27 28 29 28 27 26 24 21 20 20 21 20 20 19 18 17 16 14 13 13 12
1 3 4 4 4 5 5 2 1 3 3 4 5 6 6 5 4 4 3 4 3 2 6 7 4 3 3 5 4 4 5 7 7 6 8 15 22 26 27 27 28 28 28 28 28 28 28 27 27 28 28 27 27 26 27 28 28 28 28 27 27 27 27 27 28 28 29 29 27 25 23 21 19 19 20 19 18 16 15 13 11 9 8 7 7 8
3 3 2 1 3 5 6 3 2 1 3 5 4 4 4 3 4 4 4 2 2 5 6 4 2 3 4 5 5 5 6 6 7 7 8 10 15 20 21 21 22 24 25 26 27 28 29 29 29 30 30 30 29 29 29 29 29 29 29 29 29 29 28 28 29 28 28 27 24 22 20 19 18 19 18 15 12 10 8 6 5 4 3 3 5 6
2 0 1 1 1 4 5 3 3 4 3 4 4 6 4 0 2 1 2 1 3 5 4 2 1 2 5 7 8 8 9 8 8 10 11 12 14 16 17 18 18 18 20 21 23 25 27 27 28 28 29 29 29 29 29 28 28 28 29 29 29 29 29 29 28 27 25 22 19 19 18 18 17 15 12 9 7 6 5 4 3 2 1 2 3 4
1 4 2 2 1 4 5 4 3 0 1 4 5 6 5 3 3 2 4 2 3 4 3 2 1 2 4 6 10 13 14 14 10 9 12 15 18 17 16 16 15 16 17 18 20 22 23 24 25 26 26 27 27 27 27 26 24 24 25 26 27 28 27 26 24 21 19 17 17 17 16 15 12 10 8 8 8 8 7 6 5 4 3 3 3 4
5 2 3 2 1 4 4 3 5 5 4 4 4 6 5 4 4 4 3 3 4 3 3 2 1 3 3 4 8 9 10 11 9 9 12 15 16 15 14 13 13 14 15 15 17 18 20 21 22 22 22 22 22 23 22 21 20 20 21 22 22 22 21 19 17 15 15 15 14 14 13 12 12 11 12 11 11 9 8 7 6 4 3 3 4 5
5 2 2 1 1 4 4 2 3 6 3 4 3 5 4 5 5 3 4 5 5 1 1 2 3 5 4 5 8 5 3 2 8 11 15 17 15 14 13 12 12 12 12 13 13 14 15 16 16 17 17 18 19 19 19 19 19 19 19 18 18 17 16 16 16 15 15 15 14 15 15 15 15 14 13 12 10 9 7 5 4 3 3 4 6 7
5 2 4 3 2 1 3 1 2 2 3 2 3 4 5 4 6 4 2 1 4 2 3 2 3 5 4 6 7 1 2 3 5 9 14 18 18 16 14 12 12 12 11 10 10 10 11 12 14 15 16 17 18 18 19 19 19 18 18 18 18 18 18 18 18 18 18 18 18 18 18 17 16 14 13 11 9 7 5 3 3 3 4 6 6 7
5 1 4 1 1 1 1 3 2 2 2 4 3 5 3 3 4 3 2 2 3 2 4 2 4 5 3 4 5 2 4 7 6 6 9 14 17 17 15 13 12 11 10 10 9 9 10 11 12 13 14 15 16 17 18 19 19 19 19 19 20 21 20 20 21 21 21 21 21 20 19 17 15 13 11 9 7 5 4 3 4 4 5 5 6 7
5 3 3 1 1 2 1 3 2 1 2 4 3 2 3 3 2 1 3 1 1 3 4 3 4 4 4 5 4 3 8 9 8 7 7 10 15 18 16 15 14 13 12 12 11 11 11 12 13 14 16 17 17 18 19 20 21 21 21 21 21 21 22 22 23 23 23 22 20 18 17 15 13 11 9 7 6 5 4 4 4 4 5 5 6 7
4 4 2 2 1 1 2 1 5 3 1 1 1 2 1 2 4 3 3 4 3 3 4 3 2 3 5 6 5 8 10 10 10 9 8 12 17 20 18 17 17 16 14 13 13 14 13 14 15 16 17 18 19 19 20 21 21 22 22 23 23 24 24 24 24 23 22 20 18 16 14 13 11 9 7 6 5 4 3 3 4 5 6 7 7 7
3 3 2 1 2 1 2 3 5 7 4 2 1 1 1 0 1 1 1 3 4 3 3 2 2 5 6 5 7 9 10 9 11 9 9 14 20 21 19 18 18 17 16 14 15 16 16 16 17 18 18 19 19 20 20 21 22 23 24 24 25 25 25 24 22 20 19 17 15 14 12 10 9 8 6 5 4 3 3 4 5 6 7 7 7 6
2 3 4 2 1 3 3 3 2 5 6 6 5 5 6 3 3 2 3 2 2 3 4 4 3 7 6 4 4 7 7 6 9 11 11 16 21 22 20 18 17 17 17 16 17 17 18 19 19 19 19 19 20 20 21 22 23 25 26 26 26 24 23 21 19 18 17 15 13 11 10 9 7 6 5 4 3 3 4 5 6 6 7 6 4 3
4 4 4 2 3 4 5 4 2 2 2 4 3 4 5 4 4 5 5 3 1 2 2 3 2 6 6 4 3 5 4 3 5 11 14 18 21 22 21 18 17 18 18 18 18 19 20 20 20 20 20 20 21 21 23 24 25 26 27 26 24 23 21 20 18 17 15 14 12 10 9 8 6 5 4 3 3 4 5 6 6 6 5 3 1 0
5 4 4 2 1 3 4 4 2 1 2 2 3 3 4 4 4 5 5 4 2 3 2 2 4 6 6 5 4 5 5 3 2 6 12 16 19 21 22 21 20 20 20 20 20 20 21 22 21 22 22 22 23 24 26 27 27 27 25 24 23 21 20 19 18 16 14 13 12 10 9 7 6 5 4 4 5 5 6 6 6 5 4 3 3 2
5 3 4 4 2 2 3 3 3 2 2 2 2 2 3 3 4 3 1 2 1 4 6 5 5 6 6 5 4 5 5 5 4 3 7 12 16 20 22 22 22 22 22 22 23 23 24 24 23 23 23 24 26 28 28 28 27 26 25 23 22 21 19 18 17 15 14 13 11 9 8 6 5 4 4 5 6 6 6 6 6 5 5 4 4 3
7 4 5 6 5 6 6 4 4 3 2 1 1 2 4 5 6 4 2 2 4 4 5 5 5 6 7 6 4 5 4 4 6 6 7 10 14 17 20 22 23 23 23 24 25 25 26 25 25 25 26 28 29 30 29 28 27 25 24 23 21 20 18 17 16 15 13 12 10 8 6 6 5 5 6 7 7 7 8 7 7 6 5 5 4 3
4 2 6 8 10 10 7 4 6 8 6 5 7 7 7 7 8 7 3 4 6 3 3 6 6 7 10 7 5 6 5 5 6 7 10 12 14 16 18 20 22 23 24 25 26 26 27 27 26 27 29 31 31 30 29 27 26 24 23 21 20 19 17 16 15 14 13 11 9 7 6 6 6 7 8 8 9 9 9 8 7 6 5 4 3 3
3 4 7 9 11 9 6 7 9 12 11 12 13 11 10 9 9 9 7 9 7 4 6 9 7 9 12 9 7 8 7 5 6 11 16 16 16 17 18 20 21 22 24 25 26 28 29 29 29 30 32 33 32 31 29 27 25 23 21 20 19 18 17 16 15 14 13 11 9 8 7 8 8 9 10 10 10 10 9 8 7 6 5 4 4 3
3 6 6 6 9 6 5 7 10 12 11 12 14 14 13 12 11 11 13 13 9 7 11 13 12 13 12 7 7 9 9 10 12 15 17 16 17 19 20 22 23 23 24 26 27 28 30 31 31 32 33 33 32 31 29 27 25 23 21 20 19 18 16 16 14 13 12 11 9 9 9 9 10 11 11 11 11 10 9 8 7 6 6 5 4 3
3 5 5 7 8 5 4 6 8 10 10 8 11 14 14 14 15 16 17 17 15 13 14 15 14 14 10 6 8 10 12 14 12 11 13 16 19 20 22 24 25 25 26 26 27 28 30 31 32 33 34 34 33 31 29 28 25 23 21 19 18 17 16 15 14 13 12 12 11 10 10 11 11 12 12 12 11 10 9 8 8 7 6 5 4 2
2 3 3 6 5 4 1 2 4 7 8 7 9 10 11 12 14 16 17 16 13 13 13 11 10 11 8 9 11 13 11 10 8 10 15 19 20 21 22 24 25 25 26 26 27 29 30 32 32 33 34 34 33 32 30 28 26 23 21 19 17 17 15 14 13 13 13 13 12 11 11 12 13 13 12 12 11 10 9 9 8 7 6 4 3 1
2 2 1 5 5 3 2 2 3 3 2 4 8 10 12 13 13 14 14 12 10 11 12 10 9 11 8 8 11 13 9 10 13 16 18 19 20 22 22 24 25 25 26 27 28 29 30 32 32 33 35 35 34 33 30 28 26 24 22 19 18 17 15 15 14 13 14 14 13 13 13 13 14 13 13 12 11 11 10 10 9 7 5 4 2 1
5 5 2 4 6 3 3 1 3 4 2 6 10 12 15 14 12 10 9 11 13 13 11 11 12 13 8 7 10 9 7 11 16 20 19 19 21 22 22 23 24 25 26 27 28 29 29 30 32 33 35 36 35 34 31 29 26 24 21 19 18 17 16 16 15 14 15 15 15 14 14 14 14 14 14 13 13 12 12 10 8 7 5 3 2 2
5 6 3 4 4 3 2 3 5 2 6 9 6 8 14 14 13 12 11 15 16 14 12 12 13 11 7 9 12 10 11 16 21 22 22 21 21 22 23 23 23 24 26 27 27 27 28 29 32 33 35 35 35 34 31 28 25 22 21 19 19 18 17 17 16 16 16 17 16 16 15 15 15 15 15 15 14 13 12 10 8 6 4 3 3 3
7 6 3 2 3 3 2 5 3 7 10 5 3 4 11 13 15 16 17 19 18 16 16 16 15 11 9 13 17 17 19 24 25 25 25 25 25 25 24 23 22 24 26 27 26 27 27 29 31 33 35 35 35 33 31 29 26 24 22 21 20 19 18 18 17 17 18 19 18 17 17 17 17 16 16 16 14 13 11 9 7 5 4 3 3 3
8 7 3 1 3 2 2 5 6 8 5 5 8 6 4 6 9 11 14 15 13 12 12 15 17 14 12 17 22 21 20 22 23 26 28 28 28 27 23 21 21 24 26 25 24 25 26 27 29 31 34 35 35 34 31 29 28 25 22 21 20 20 20 19 19 19 20 20 19 19 19 18 17 17 17 16 14 12 10 8 6 5 4 3 3 4
8 7 4 2 3 3 3 4 3 5 7 10 11 5 5 6 7 8 9 12 10 11 13 15 17 16 13 19 22 16 11 11 12 20 28 29 26 24 20 18 18 21 23 22 22 23 23 25 26 28 30 33 34 34 32 29 28 25 23 22 22 21 21 21 21 22 22 21 20 20 19 19 18 18 17 15 13 11 9 7 5 4 3 3 4 5
7 6 6 5 3 4 5 2 1 3 10 13 6 6 9 11 10 9 7 10 9 16 21 18 16 16 13 15 16 9 6 5 5 13 24 25 21 20 20 19 20 20 21 22 22 23 23 24 25 25 27 30 32 33 32 30 28 27 25 24 23 23 22 22 23 23 23 22 21 21 20 20 19 17 15 13 11 9 7 6 5 4 3 4 6 8
5 3 5 6 3 4 5 4 4 7 13 8 6 8 12 16 14 11 4 11 7 15 24 20 15 15 12 14 16 11 7 5 5 14 24 23 21 24 25 25 25 23 23 23 23 24 24 24 24 25 26 28 30 32 32 30 29 27 25 24 24 23 23 24 25 24 23 22 22 21 21 20 18 16 14 12 9 8 6 5 4 4 5 7 9 10
6 3 4 5 5 5 6 5 4 6 10 6 9 10 17 22 18 12 5 12 5 16 25 24 18 17 17 20 20 12 8 10 13 21 27 25 25 28 27 25 25 23 22 23 23 23 24 24 25 26 26 27 29 31 31 30 29 27 25 24 24 24 25 25 25 24 23 23 22 22 21 19 17 15 12 10 9 7 6 5 5 6 8 9 11 12
2 1 3 6 6 6 7 7 5 6 8 7 7 15 27 25 13 8 10 8 10 18 23 24 23 25 26 26 21 16 20 25 23 20 20 21 25 28 25 22 21 20 20 21 21 22 23 23 25 25 25 26 28 29 30 30 29 27 25 25 25 25 26 25 24 24 23 23 22 22 20 18 16 13 11 10 9 7 6 6 7 8 10 10 12 12
3 2 1 3 5 4 4 4 4 7 7 8 7 15 25 17 5 9 7 3 10 14 14 18 24 26 27 29 29 27 28 26 19 12 11 15 21 23 23 22 21 21 21 21 21 22 22 23 24 24 25 26 27 28 29 28 27 26 25 26 26 26 25 25 24 24 24 23 23 21 19 16 14 13 11 10 9 7 7 7 8 9 10 11 12 12
6 5 3 5 5 4 3 5 6 9 6 17 16 8 10 8 6 10 10 6 9 12 12 15 19 20 22 27 30 28 24 20 17 13 12 15 18 20 22 23 21 20 21 20 20 21 21 21 22 23 25 25 26 27 27 26 26 25 25 26 25 25 25 24 24 24 24 23 22 19 17 16 14 13 11 10 9 8 8 8 9 10 10 11 13 14
6 6 5 5 5 5 5 8 8 4 8 24 20 8 13 16 9 9 15 13 10 12 14 14 15 16 18 21 24 25 23 19 19 18 16 17 18 19 20 19 17 16 16 16 17 18 18 20 21 22 23 24 24 25 25 25 25 24 25 25 25 25 25 25 25 25 24 22 20 18 17 15 14 12 11 9 8 8 8 9 9 10 12 13 14 15
10 10 7 5 6 7 7 10 9 6 12 21 16 11 25 32 18 9 15 17 14 16 17 15 14 15 13 13 18 22 22 20 19 18 17 17 18 18 17 16 15 14 15 15 15 15 16 17 17 19 21 22 22 23 24 24 23 23 24 24 24 25 25 25 25 24 22 21 19 18 17 15 13 11 10 9 8 8 9 10 11 12 13 14 14 15
9 11 8 4 4 6 8 11 9 5 8 14 10 8 22 34 25 14 15 17 16 17 16 13 13 14 12 12 15 18 20 20 18 16 16 17 17 18 17 16 15 15 15 15 15 15 15 16 16 17 18 19 21 22 23 23 23 23 23 24 25 25 26 25 24 23 22 21 19 18 16 13 11 10 9 8 9 9 10 11 12 13 14 14 15 15
4 9 7 3 5 6 8 10 9 9 12 16 13 9 16 25 25 18 15 16 16 16 14 12 12 12 12 11 12 14 16 17 16 16 17 18 18 18 17 16 16 16 15 14 14 13 14 15 16 17 17 19 20 22 22 24 24 24 24 24 25 26 25 25 24 23 22 20 18 16 14 12 11 10 9 9 10 10 11 12 13 14 14 14 15 15
5 9 7 4 6 7 6 7 8 11 14 15 12 10 15 20 20 16 15 17 19 17 15 13 11 10 10 9 9 10 12 14 15 16 17 17 17 17 17 16 16 15 14 14 13 13 13 14 15 16 17 18 19 21 22 24 24 25 26 26 25 26 25 25 24 22 21 19 17 15 14 12 11 10 10 10 11 11 12 13 13 14 14 14 15 15
8 10 7 4 5 4 5 3 3 4 5 8 10 12 17 20 20 19 18 18 17 16 15 14 12 10 9 8 8 10 11 14 15 14 15 16 16 16 16 15 14 13 12 12 12 12 13 13 14 15 16 17 19 21 22 24 25 26 26 26 26 26 25 25 23 22 20 18 16 15 13 12 11 11 11 11 12 13 13 13 13 14 14 14 15 15
9 7 4 4 7 7 5 7 10 6 2 9 14 16 18 20 21 20 18 16 13 12 12 12 12 12 10 9 10 11 12 14 15 14 14 14 14 14 14 14 13 13 12 12 12 12 13 13 13 15 16 17 19 21 22 24 26 27 27 27 27 26 25 24 23 21 20 18 16 15 13 12 12 12 12 13 13 13 14 14 13 14 14 15 15 15
8 7 7 8 7 7 7 15 18 8 2 9 16 16 16 17 17 16 15 13 11 11 10 10 10 11 11 11 12 12 11 12 13 14 13 12 12 12 11 11 12 12 12 12 13 13 13 15 16 17 18 18 20 21 23 24 26 27 28 28 28 27 26 24 23 21 20 18 16 14 13 13 13 13 13 14 14 14 15 14 14 14 15 15 15 14
Wind_Direction
178 186 210 212 215 225 227 208 205 225 236 220 184 187 191 190 221 232 262 265 160 157 217 205 211 241 237 240 235 215 204 209 218 217 215 214 215 215 214 217 222 228 233 234 231 230 229 227 227 227 225 223 221 220 219 220 221 223 224 225 225 223 223 223 222 224 227 230 234 238 242 247 250 252 255 257 258 260 262 263 262 264 267 267 269 270
194 208 215 214 219 229 233 218 214 235 249 253 219 205 205 198 215 250 252 244 163 165 229 215 218 258 249 240 242 217 198 212 215 211 215 216 215 216 217 219 225 230 231 230 229 228 228 227 226 227 226 223 222 220 219 221 222 223 225 226 226 224 225 227 228 229 233 238 243 248 252 257 258 256 258 261 263 265 266 266 266 266 266 267 269 272
206 221 209 214 222 233 250 233 230 243 243 242 214 187 212 206 187 298 325 239 101 167 255 253 212 251 255 247 244 212 201 216 217 214 218 217 214 215 216 220 224 226 226 223 223 224 224 226 225 225 225 224 225 224 224 224 223 224 226 227 228 228 228 230 234 236 239 243 247 251 255 256 257 256 258 261 262 262 263 266 268 269 268 268 270 272
202 211 202 214 214 219 249 250 245 247 243 242 180 156 216 200 167 234 279 200 129 138 198 81 210 259 267 267 263 229 220 221 222 223 226 224 220 218 217 220 223 222 220 218 218 221 221 222 223 223 224 224 224 225 225 224 223 224 227 228 229 231 233 233 235 239 243 245 246 248 249 251 253 254 254 255 257 259 262 265 267 272 274 274 276 275
205 187 192 213 219 205 233 253 256 240 240 246 196 163 197 189 185 198 163 143 41 348 82 77 360 294 255 245 258 241 228 223 224 224 226 228 226 225 224 223 223 222 221 219 217 219 220 221 223 224 225 224 225 226 226 226 226 227 228 230 231 233 235 237 238 240 242 242 241 240 238 238 241 245 249 254 260 264 266 270 272 276 277 276 277 271
213 190 183 207 228 200 220 244 242 213 222 257 225 190 187 182 169 133 124 110 64 313 269 116 308 290 269 237 240 241 230 224 223 218 222 228 225 224 225 225 225 225 225 225 224 222 221 221 223 224 225 226 228 229 229 229 229 230 231 231 233 233 235 238 241 242 241 241 240 239 239 239 242 247 255 262 268 270 272 275 276 276 275 275 273 267
200 182 169 196 209 196 222 240 229 186 182 245 247 200 165 147 135 137 141 127 128 230 264 138 175 262 307 269 244 237 231 233 225 217 223 227 224 222 225 227 227 225 224 225 225 223 222 221 221 222 224 227 229 230 231 230 229 229 230 231 233 234 236 238 241 242 241 241 241 241 243 246 250 255 263 267 268 269 271 273 273 273 272 269 267 265
140 160 170 184 188 191 210 231 233 174 156 235 246 138 132 134 144 158 153 145 178 185 336 35 146 231 287 265 256 230 219 245 241 230 233 228 223 223 224 225 225 225 224 222 221 220 221 222 222 224 227 229 229 229 229 229 229 228 228 229 232 235 238 239 239 240 241 242 242 242 243 246 250 255 261 262 262 264 266 269 272 271 268 265 265 267
117 162 182 171 169 194 199 223 230 172 165 240 221 128 138 147 151 157 146 135 110 114 290 291 146 187 269 269 291 262 200 249 243 229 234 228 223 222 221 221 220 219 220 219 219 219 219 220 222 225 227 228 227 226 227 228 229 229 228 228 230 233 236 237 237 237 238 240 240 240 241 243 248 253 254 255 257 259 261 264 266 266 267 269 272 275
176 177 181 167 171 194 186 214 221 180 201 217 150 88 77 78 102 123 131 122 76 95 233 246 185 182 269 277 295 345 210 238 236 232 233 228 225 222 220 219 216 215 214 213 215 216 218 220 222 225 226 226 225 224 224 226 227 227 227 227 228 231 233 234 234 234 235 236 235 236 239 243 248 250 250 252 255 258 261 265 266 267 270 273 276 281
305 161 167 156 162 162 148 157 207 199 190 135 94 63 43 25 49 62 65 99 90 261 245 243 206 174 270 277 240 213 220 211 213 238 241 232 230 226 225 222 218 218 218 218 218 219 221 224 227 229 231 231 230 227 224 224 224 225 226 226 227 228 230 232 233 233 234 234 234 237 242 246 247 246 247 250 254 259 264 269 273 272 271 276 283 286
9 119 162 110 131 129 114 85 26 45 127 106 91 98 75 360 17 26 0 68 161 246 262 265 210 161 225 261 244 244 259 225 202 218 228 224 221 219 217 215 214 214 217 221 223 224 225 226 228 230 232 233 233 232 228 225 225 225 225 226 226 227 229 231 232 233 234 235 238 241 242 240 238 239 242 247 252 257 259 257 256 254 258 274 282 284
26 308 254 90 148 155 130 110 32 16 51 92 113 127 123 9 35 26 261 222 217 241 274 293 277 199 228 255 262 269 277 255 218 218 223 202 185 186 191 197 205 210 216 221 223 226 228 228 229 229 230 231 231 232 231 229 227 226 226 227 227 228 229 231 233 235 237 238 237 233 229 227 227 230 233 233 227 219 205 191 185 186 204 246 263 276
171 307 299 101 277 205 168 154 158 254 122 134 147 149 153 145 113 208 239 263 250 254 275 278 290 255 263 272 254 251 257 249 234 227 219 193 177 178 187 197 209 217 221 223 223 224 226 227 228 228 228 229 229 229 229 228 226 224 224 224 225 227 228 231 233 233 230 225 219 216 215 214 211 205 194 183 177 172 164 160 162 171 191 216 243 264
174 260 227 165 164 185 184 176 159 155 166 187 174 147 157 164 153 193 215 206 223 257 285 282 258 195 203 259 251 256 265 244 216 201 191 182 180 183 189 201 212 219 222 224 225 225 225 226 227 226 225 224 223 222 221 218 215 214 214 214 216 217 217 216 213 208 204 200 198 196 191 183 174 166 162 158 157 155 154 159 168 183 208 241 264 276
160 203 261 325 32 159 172 208 127 125 169 223 154 128 177 187 148 146 185 181 174 173 270 243 232 208 206 269 276 291 320 180 163 166 165 167 174 178 187 201 208 214 218 220 223 223 221 221 219 217 213 210 209 208 204 201 199 199 199 198 196 193 189 185 181 177 176 174 172 169 162 158 155 152 151 150 151 153 157 167 183 214 257 278 284 292
155 206 316 359 12 117 144 149 65 122 190 187 137 179 214 167 119 120 199 155 108 154 248 208 239 283 298 287 291 312 159 184 161 162 162 165 171 177 187 196 199 204 208 210 213 214 213 208 202 200 197 196 195 192 189 187 186 185 182 179 174 169 168 168 164 160 158 156 154 152 149 148 148 149 150 152 156 159 165 183 216 253 269 280 291 305
152 136 318 341 163 268 137 110 60 47 113 124 169 213 200 129 102 114 171 13 67 202 265 207 213 269 273 265 314 357 210 231 224 198 183 177 178 183 187 189 193 195 196 199 198 199 200 194 189 186 182 182 180 178 177 174 172 170 169 167 163 160 158 157 153 150 149 148 147 147 146 147 149 151 154 156 161 168 185 215 239 257 273 294 309 318
147 121 305 297 181 267 358 109 140 27 82 140 187 206 126 156 213 149 157 187 179 223 268 275 238 243 214 223 287 267 224 229 228 217 208 198 192 188 185 185 187 187 189 192 190 188 186 181 178 175 172 171 169 169 167 165 163 161 160 158 155 153 151 149 148 146 146 146 147 147 147 148 150 153 157 161 172 188 207 229 252 275 295 310 314 316
163 140 244 275 258 243 14 141 185 186 84 92 26 3 58 158 185 186 170 163 166 204 240 284 295 255 232 217 213 221 222 217 212 211 210 207 199 190 187 185 184 186 188 187 186 183 179 176 175 172 170 168 165 164 162 159 158 155 154 153 152 151 149 148 147 146 147 147 147 148 148 151 155 159 167 175 186 205 225 256 285 296 301 304 304 309
159 136 173 282 324 161 183 223 187 171 169 145 80 172 236 223 147 201 223 142 129 167 205 224 265 266 251 212 200 222 231 216 206 205 209 210 201 193 191 189 185 186 187 185 184 182 177 175 174 170 169 167 162 160 157 156 154 153 153 151 150 150 149 149 149 148 149 149 149 152 154 158 163 167 177 186 195 223 258 279 289 290 291 294 297 304
143 129 143 136 188 197 236 265 197 180 181 171 175 185 190 188 139 167 241 236 132 172 183 170 236 271 256 214 213 238 252 235 208 201 204 208 203 197 193 192 190 188 188 186 184 181 177 175 172 169 168 166 162 159 156 155 155 154 152 151 150 151 151 151 151 151 152 154 156 159 161 165 171 176 185 196 218 252 266 270 275 279 281 284 289 302
117 104 117 130 201 215 258 279 252 222 160 143 192 195 170 166 144 161 211 232 230 225 153 134 220 274 263 241 247 264 289 294 216 207 210 207 202 198 195 193 193 192 191 188 186 183 179 176 174 172 170 168 165 162 159 157 156 155 154 153 153 154 155 156 157 158 160 162 164 166 168 173 179 185 198 219 239 252 254 259 264 263 262 258 241 115
123 101 104 85 323 307 305 306 306 292 115 140 226 195 160 183 177 170 184 171 183 211 159 160 243 268 276 276 278 282 295 310 250 212 211 205 198 198 198 196 194 194 193 191 188 186 183 180 179 177 175 173 169 166 162 159 158 157 157 158 159 160 161 163 164 166 167 169 171 173 175 180 186 196 216 231 238 244 245 246 244 231 214 177 151 132
164 135 118 116 72 356 333 313 286 246 190 202 240 193 176 188 153 146 155 123 228 223 167 172 233 250 273 301 305 300 306 292 261 203 195 196 192 196 200 198 196 194 194 193 191 189 188 186 184 182 180 176 171 168 164 162 162 163 163 165 166 167 169 169 171 173 174 174 175 177 179 186 199 211 224 231 233 235 230 224 211 193 176 161 154 138
168 166 140 140 164 186 201 217 203 181 183 247 237 174 182 178 159 165 175 177 240 238 158 172 229 253 280 307 302 294 305 277 246 209 195 196 191 195 199 199 197 195 196 197 195 193 192 190 188 185 182 178 173 170 168 167 168 169 170 171 172 173 175 176 177 178 177 177 178 183 191 201 214 221 226 227 224 219 209 199 187 176 170 166 155 134
137 180 173 176 194 197 189 178 149 136 149 206 213 195 191 189 178 169 156 192 215 204 185 219 226 244 264 271 269 268 252 238 242 217 202 199 196 199 201 202 201 199 198 199 197 196 195 193 190 187 183 180 176 173 173 173 174 175 176 177 177 179 181 182 182 180 181 183 187 197 207 214 219 219 218 214 207 201 193 184 178 173 169 161 144 122
106 205 196 194 209 205 169 163 160 154 171 198 203 201 201 193 180 176 196 212 197 176 235 242 223 231 248 240 228 247 242 230 236 220 209 204 202 204 204 204 204 202 200 200 199 199 197 195 192 189 185 182 179 178 178 178 179 180 182 183 184 185 186 187 186 186 188 192 198 209 214 214 212 208 204 201 195 191 185 179 176 173 164 150 136 123
129 196 198 195 214 215 172 176 175 170 184 197 197 201 202 192 183 190 212 219 200 196 234 237 223 228 239 228 216 228 225 222 227 223 215 209 206 204 202 202 202 203 203 202 202 201 199 198 195 191 188 186 184 184 184 184 186 186 187 189 190 191 191 191 192 194 197 200 205 212 212 208 205 201 197 196 191 185 181 178 176 170 160 150 145 133
151 194 185 173 202 227 195 183 183 186 196 200 201 205 201 193 193 198 211 219 212 214 229 234 237 242 237 217 224 233 231 232 234 226 216 211 208 204 200 202 203 204 206 207 205 203 201 200 198 194 191 190 189 190 190 190 191 191 193 194 195 196 196 196 199 203 205 206 207 209 208 205 202 200 197 193 188 183 181 180 176 167 162 158 151 138
161 208 167 143 183 252 310 109 163 189 203 209 215 217 204 197 203 208 215 219 215 224 237 244 260 265 240 210 232 250 246 229 215 211 214 213 209 203 200 203 206 208 210 210 207 205 203 201 200 198 195 195 195 196 196 196 196 196 198 200 201 201 202 203 206 209 209 208 207 206 206 204 202 199 195 189 185 184 183 179 174 169 168 166 158 160
138 197 124 118 165 236 340 64 134 126 124 217 232 225 205 197 205 212 215 214 206 218 236 244 254 257 236 200 227 244 224 196 201 210 212 210 206 205 206 208 210 211 212 212 209 206 204 203 203 202 201 200 201 201 202 203 203 202 203 204 206 206 208 209 211 213 211 207 206 205 203 202 200 196 191 188 186 186 182 178 176 175 176 179 186 242
142 146 146 148 170 224 326 67 129 91 81 245 240 216 204 205 208 210 220 222 212 208 218 227 234 240 226 193 216 226 193 197 212 211 210 211 209 210 215 219 219 216 213 213 211 208 206 207 208 207 206 205 206 207 207 208 209 208 207 207 209 210 211 213 213 213 210 205 203 203 201 199 196 193 191 190 188 185 182 180 182 185 190 202 231 281
144 140 171 182 164 202 241 103 89 128 219 244 241 185 191 202 201 202 217 221 215 211 216 227 235 236 217 205 219 217 199 213 222 219 223 228 224 221 224 226 228 223 217 215 213 211 210 211 210 210 209 209 210 210 210 211 211 212 210 209 211 212 213 215 214 211 206 203 201 200 198 196 194 193 193 191 188 186 185 188 193 199 210 231 262 292
157 145 172 192 130 159 164 101 118 221 226 255 319 193 195 200 197 205 220 221 214 214 220 232 242 236 216 221 229 224 216 222 228 229 233 237 237 235 233 231 230 226 220 216 215 214 213 214 214 214 212 212 212 212 212 212 211 212 211 211 212 213 213 214 212 207 203 202 200 199 198 196 195 195 194 192 190 189 192 197 203 213 230 250 273 298
160 153 149 144 121 127 114 133 197 239 264 305 293 261 199 191 194 207 234 240 225 214 220 232 242 238 223 228 234 233 230 231 233 234 235 237 238 238 236 238 236 227 220 218 220 221 220 219 220 219 218 216 215 215 215 214 213 214 213 212 212 213 213 211 209 204 202 202 201 200 199 198 197 196 194 193 193 194 198 204 212 226 241 262 291 312
148 148 142 168 173 146 140 180 245 314 309 270 257 231 162 176 182 182 233 251 225 202 211 223 236 238 227 229 236 236 232 233 239 240 236 234 234 233 234 241 238 227 222 223 228 230 228 226 225 223 223 222 220 219 217 215 215 216 216 215 213 212 211 209 206 204 203 203 203 202 201 198 196 196 195 196 197 198 203 209 218 234 257 286 308 318
146 158 163 181 198 114 116 165 301 283 258 247 219 157 163 183 177 157 206 251 225 203 210 215 228 233 223 225 230 217 195 210 247 243 233 227 226 227 229 232 228 222 223 225 228 228 226 226 226 225 226 226 224 222 219 216 217 218 218 216 213 212 211 207 205 204 204 205 204 202 200 198 196 196 197 198 199 203 211 219 229 249 275 299 310 318
107 119 139 155 185 140 145 195 192 218 250 239 144 145 170 174 156 124 179 257 233 194 207 215 223 227 214 208 206 185 171 202 239 242 232 222 220 222 224 228 227 222 220 220 223 226 225 224 223 222 223 225 224 221 218 216 218 219 218 216 213 212 210 206 205 205 205 205 203 200 198 196 196 197 198 200 205 210 219 230 246 269 291 304 312 318
85 79 127 162 195 174 173 211 214 238 252 206 157 169 164 156 140 120 222 261 189 169 203 214 214 219 214 205 196 176 178 209 231 243 234 220 217 220 220 225 227 226 225 222 220 221 221 221 221 220 220 221 220 220 218 216 217 217 216 215 213 210 207 205 205 205 203 202 200 197 196 195 196 198 200 205 212 218 228 245 265 285 299 307 313 317
102 119 163 188 203 184 181 212 249 260 234 198 182 173 157 145 141 169 228 244 147 165 203 211 211 220 217 204 193 192 209 219 229 241 230 213 216 220 219 222 224 223 226 225 221 219 218 217 218 219 220 219 218 217 217 215 215 215 214 213 210 207 205 204 204 203 201 200 197 196 196 197 198 201 205 210 218 225 240 261 279 293 302 307 313 318
166 154 162 190 192 182 176 198 265 270 220 159 149 168 159 149 181 213 208 153 155 182 207 206 212 224 220 209 207 211 217 221 226 231 213 205 215 220 223 228 228 224 224 223 221 221 219 217 216 215 216 217 215 215 215 214 215 213 211 209 206 205 204 203 202 201 199 198 197 197 198 199 201 206 211 216 224 235 253 272 285 295 303 310 317 322
166 158 191 202 178 165 170 183 227 268 202 140 130 149 175 180 216 202 180 168 192 206 210 208 216 223 221 217 216 217 219 219 218 215 203 199 208 214 221 227 229 229 229 226 223 223 221 220 218 215 215 215 213 213 212 212 211 210 207 206 204 203 203 201 200 200 199 198 199 199 200 204 207 211 215 222 233 247 264 278 289 300 309 315 319 319
177 169 193 211 184 165 188 201 212 250 166 156 153 174 202 199 205 195 186 188 199 205 207 211 215 217 221 222 218 215 216 216 215 214 207 202 205 208 213 218 221 224 225 223 223 222 219 218 217 214 214 213 210 209 208 207 208 206 204 204 203 202 202 201 200 200 199 199 201 202 205 209 211 215 220 230 244 260 275 287 298 306 310 311 310 308
201 190 177 189 195 185 202 220 214 189 175 179 182 192 195 198 206 209 196 199 204 203 202 205 206 204 208 215 214 212 212 213 214 212 208 205 204 203 207 213 218 220 218 215 215 212 209 211 212 211 210 207 205 204 203 202 204 205 204 204 202 203 202 201 200 200 200 202 204 206 210 212 214 220 230 242 258 274 286 294 300 302 301 301 301 301
208 191 165 161 202 214 236 240 221 189 188 196 201 203 196 199 206 208 201 204 203 196 193 195 196 190 183 190 201 205 209 212 212 206 203 202 203 205 210 213 212 209 206 204 203 201 201 202 204 207 208 205 203 202 201 200 201 203 206 206 203 203 202 201 201 202 203 206 208 210 212 215 220 231 244 257 271 282 288 292 295 295 294 295 296 297
228 189 170 167 185 199 237 238 208 197 204 197 196 202 194 195 203 207 201 197 189 180 175 174 173 173 174 180 190 197 203 207 205 201 200 202 204 208 210 208 204 199 195 196 197 198 200 201 202 204 206 206 204 202 201 201 200 200 204 206 205 204 203 203 204 205 206 209 210 213 216 221 229 241 254 264 273 280 283 286 289 288 289 290 290 292
196 179 182 203 189 190 236 241 200 197 201 189 185 194 187 187 196 198 188 181 174 167 167 167 166 173 179 182 190 196 197 197 196 197 197 197 202 206 204 200 197 192 190 194 197 200 203 205 205 205 204 205 206 203 202 203 202 201 202 205 207 207 206 206 207 208 210 212 213 216 221 228 237 247 257 266 271 276 278 279 281 281 281 283 285 288
152 167 179 187 192 222 286 281 145 138 177 184 185 189 186 184 184 179 174 172 168 166 171 172 170 175 180 185 192 193 191 191 192 196 200 199 198 199 198 196 195 196 198 201 203 205 208 208 209 208 206 205 206 206 205 204 205 206 205 206 208 209 209 210 210 211 213 214 216 221 227 234 243 251 258 265 268 271 272 273 273 274 276 280 285 289
151 172 170 156 195 228 240 185 161 133 172 204 192 182 180 180 175 167 161 159 158 162 169 171 169 168 170 176 183 187 192 194 191 194 201 200 195 194 196 197 199 203 207 208 210 213 213 213 214 212 210 209 208 208 208 207 208 209 209 209 211 211 211 212 213 213 215 217 220 227 233 240 248 254 258 262 264 264 264 265 267 272 276 280 285 290
177 188 180 175 200 226 203 178 173 159 126 181 182 178 178 181 181 176 169 164 164 163 160 163 169 169 170 174 175 177 186 192 190 188 190 193 195 198 202 206 209 212 214 215 216 218 218 218 218 217 217 216 214 212 212 211 211 213 213 213 213 213 214 215 215 216 219 221 226 232 238 244 250 253 255 257 259 260 262 264 267 271 274 278 283 288